Location: Saratoga Springs
(43.0831°N, 73.7850°W)
Time: 16:30:07
(UTC-04:00)

Vanguard 2 Rocket - Pass Details

Date: 19 April 2024
Orbit: 556 x 3304 km, 32.9° (Epoch: 24 May)

Event Time Altitude Azimuth Distance (km) Brightness Sun altitude
Rises 23:53:21 0° 248° (WSW) 6,644 11.3 -33.8°
Reaches altitude 10° 23:57:29 10° 245° (WSW) 5,862 10.9 -34.1°
Maximum altitude 00:16:23 60° 172° (S) 3,604 9.4 -34.9°
Drops below altitude 10° 00:34:02 10° 99° (E) 5,530 10.7 -35.4°
Sets 00:37:47 0° 96° (E) 6,266 11.1 -35.4°
